Погода в Милфорд-Саунд

Новая Зеландия     44°40′23″S   167°55′27″E
темп.,
°C
ветер,
м/с
пор.,
м/с
влажн.,
%
обл.,
%
осадки,
мм/ч
давл.,
гПа
погр.,
м
23 апреля, пт
пт2300:00+7с4799100 5.1 1004619
03:00+7ссз4899100 6.1 10031083
06:00+6сз369893 7.6 1005512
09:00+5ссз359599 0.1 1006453
12:00+8ссз467472 0.1 10041003
15:00+5с3792100 1.9 1004760
18:00+5ссв3798100 11.7 1003511
21:00+6сз3598100 11.5 1004457
24 апреля, сб
сб2400:00+4ссз249977 13.6 1007171
03:00+3ссз239877 0.4 100899
06:00+4ссз2498100 0.7 1008289
09:00+4сз2397100 2.4 1009611
12:00+4сз2393100 3.9 1010527
15:00+4сз129595 1.1 1010403
18:00+3ссз119081 1.1 101048
21:00+1с22962 0.0 101242
25 апреля, вс
вс2500:000ссз239991 0.0 101265
03:00+1с379980 0.0 1010187
06:00+3с4899100 7.3 1007696
09:00+4сз3898100 10.6 10071130
12:00+4зсз3381100 12.6 1009617
15:00+4зсз237692 0.5 1010741
18:00+2зсз229194 1.5 101158
21:000сз119661 0.3 101260
26 апреля, пн
пн2600:000ссз239699 0.4 1013133
03:000с3699100 1.5 1011224
06:00+1ссз36100100 8.2 1009466
09:00+2ссз38100100 5.1 1006678
12:00+3ссз26100100 22.9 1003521
15:00+5зсз348887 5.1 1004612
18:00−1з229582 5.5 100820
21:00−4ю11965 0.0 101114
27 апреля, вт
вт2700:00−5ю239626 0.0 101335
03:00−5ююв239577 0.0 101449
06:00−6юв2292100 0.0 101633
09:00−2юв228672 0.0 101773
12:00+3юв22755 0.0 1016651
15:00+4ююв117322 0.0 1015899
18:00−2юв11965 0.0 101811
21:00−4вюв1197100 0.0 102011